{"data":{"norad_id":58500,"intl_designator":"2023-188A","name":"DOORY-SAT","alt_names":[],"object_type":"PAYLOAD","status":"ACTIVE","operator":null,"country":"SKOR","launch_date":"2023-12-04","launch_site_code":"JJSLA","launch_vehicle":null,"mission":null,"orbit_class":"UNKNOWN","rcs_meters":null,"size_class":null,"mass_kg":null,"dimensions":null,"purposes":[],"wikipedia_slug":null,"has_3d_model":false,"image_url":null,"decayed_at":null,"tle_current":{"epoch":"2026-09-21T22:30:20.458656Z","epoch_age_seconds":120842,"freshness":"FRESH","line1":"1 58500U 23188A   26264.93773679  .00000586  00000+0  10164-3 0  9994","line2":"2 58500  46.9822 181.0327 0007669 138.9650 221.1823 14.80821912151331","mean_motion":14.80821912,"eccentricity":0.0007669,"inclination_deg":46.9822,"raan_deg":181.0327,"arg_perigee_deg":138.965,"mean_anomaly_deg":221.1823,"bstar":0.00010164,"rev_number":15133,"period_min":97.24329362841,"perigee_km":621.35892481936,"apogee_km":632.10299129343,"semimajor_km":7004.8679580564,"source":"CELESTRAK","updated_at":"2026-09-22T09:00:26.680242Z"}}}